| time (UTC) | temp F | wind direction | speed knots | gust knots | rain 1hr in | rain 24hr in | rain mn in | humidity % | barometer mb |
| 20260506014046 | 74 | 0.0 | 0.0 | 0.00 | 0.00 | 0.00 | 44 | ||
| 20260506013032 | 75 | 0.0 | 0.0 | 0.00 | 0.00 | 0.00 | 42 | ||
| 20260506012043 | 75 | 0.0 | 0.0 | 0.00 | 0.00 | 0.00 | 41 | ||
| 20260506011029 | 75 | 0.0 | 0.0 | 0.00 | 0.00 | 0.00 | 41 | ||
| 20260506010057 | 76 | 0.0 | 0.0 | 0.00 | 0.00 | 0.00 | 40 | ||
| 20260506005045 | 76 | 0.0 | 0.0 | 0.00 | 0.00 | 0.00 | 39 | ||
| 20260506004038 | 77 | 0.0 | 0.0 | 0.00 | 0.00 | 0.00 | 38 | ||
| 20260506003119 | 77 | 0.0 | 0.0 | 0.00 | 0.00 | 0.00 | 37 | ||
| 20260506002036 | 78 | 0.0 | 0.0 | 0.00 | 0.00 | 0.00 | 36 | ||
| 20260506001040 | 78 | 0.0 | 0.0 | 0.00 | 0.00 | 0.00 | 35 | ||
| 20260506000034 | 78 | 0.0 | 0.0 | 0.00 | 0.00 | 0.00 | 34 | ||
| 20260505235038 | 79 | 0.0 | 0.0 | 0.00 | 0.00 | 0.00 | 32 | ||
| 20260505234047 | 80 | 0.0 | 0.0 | 0.00 | 0.00 | 0.00 | 32 | ||
| 20260505233038 | 81 | 0.0 | 0.0 | 0.00 | 0.00 | 0.00 | 33 | ||
| 20260505232045 | 82 | 0.0 | 0.0 | 0.00 | 0.00 | 0.00 | 33 | ||
| 20260505231033 | 82 | 0.0 | 0.0 | 0.00 | 0.00 | 0.00 | 31 | ||
| 20260505230042 | 82 | 0.0 | 0.0 | 0.00 | 0.00 | 0.00 | 31 | ||
| 20260505225031 | 83 | 0.0 | 0.0 | 0.00 | 0.00 | 0.00 | 30 | ||
| 20260505224039 | 83 | 0.0 | 0.0 | 0.00 | 0.00 | 0.00 | 30 | ||
| 20260505223105 | 82 | 0.0 | 0.0 | 0.00 | 0.00 | 0.00 | 31 | ||
| 20260505222037 | 82 | 0.0 | 0.0 | 0.00 | 0.00 | 0.00 | 32 | ||
| 20260505221043 | 83 | 0.0 | 0.0 | 0.00 | 0.00 | 0.00 | 32 | ||
| 20260505220035 | 85 | 0.0 | 0.0 | 0.00 | 0.00 | 0.00 | 31 | ||
| 20260505215041 | 85 | 0.0 | 0.0 | 0.00 | 0.00 | 0.00 | 32 | ||
| 20260505214033 | 84 | 0.0 | 0.0 | 0.00 | 0.00 | 0.00 | 31 | ||
| 20260505213039 | 84 | 0.0 | 0.0 | 0.00 | 0.00 | 0.00 | 31 | ||
| 20260505212050 | 84 | 0.0 | 0.0 | 0.00 | 0.00 | 0.00 | 33 | ||
| 20260505211036 | 85 | 0.0 | 0.0 | 0.00 | 0.00 | 0.00 | 32 | ||
| 20260505210044 | 85 | 0.0 | 0.0 | 0.00 | 0.00 | 0.00 | 31 | ||
| 20260505205034 | 84 | 0.0 | 0.0 | 0.00 | 0.00 | 0.00 | 33 | ||
| 20260505204042 | 84 | 0.0 | 0.0 | 0.00 | 0.00 | 0.00 | 31 | ||
| 20260505203032 | 86 | 0.0 | 0.0 | 0.00 | 0.00 | 0.00 | 29 | ||
| 20260505202039 | 86 | 0.0 | 0.0 | 0.00 | 0.00 | 0.00 | 29 | ||
| 20260505201048 | 87 | 0.0 | 0.0 | 0.00 | 0.00 | 0.00 | 28 | ||
| 20260505200037 | 87 | 0.0 | 0.0 | 0.00 | 0.00 | 0.00 | 29 | ||
| 20260505195045 | 86 | 0.0 | 0.0 | 0.00 | 0.00 | 0.00 | 30 | ||
| 20260505194034 | 87 | 0.0 | 0.0 | 0.00 | 0.00 | 0.00 | 28 | ||
| 20260505193043 | 87 | 0.0 | 0.0 | 0.00 | 0.00 | 0.00 | 29 | ||
| 20260505192032 | 88 | 0.0 | 0.0 | 0.00 | 0.00 | 0.00 | 30 | ||
| 20260505191039 | 87 | 0.0 | 0.0 | 0.00 | 0.00 | 0.00 | 30 | ||
| 20260505190030 | 88 | 0.0 | 0.0 | 0.00 | 0.00 | 0.00 | 32 | ||
| 20260505185037 | 87 | 0.0 | 0.0 | 0.00 | 0.00 | 0.00 | 31 | ||
| 20260505184104 | 88 | 0.0 | 0.0 | 0.00 | 0.00 | 0.00 | 32 | ||
| 20260505183035 | 88 | 0.0 | 0.0 | 0.00 | 0.00 | 0.00 | 33 | ||
| 20260505182043 | 87 | 0.0 | 0.0 | 0.00 | 0.00 | 0.00 | 34 | ||
| 20260505181033 | 87 | 0.0 | 0.0 | 0.00 | 0.00 | 0.00 | 35 | ||
| 20260505180059 | 86 | 0.0 | 0.0 | 0.00 | 0.00 | 0.00 | 35 | ||
| 20260505175039 | 88 | 0.0 | 0.0 | 0.00 | 0.00 | 0.00 | 34 | ||
| 20260505174040 | 87 | 0.0 | 0.0 | 0.00 | 0.00 | 0.00 | 35 | ||
| 20260505173049 | 87 | 0.0 | 0.0 | 0.00 | 0.00 | 0.00 | 35 | ||
| 20260505172035 | 86 | 0.0 | 0.0 | 0.00 | 0.00 | 0.00 | 34 | ||
| 20260505171047 | 85 | 0.0 | 0.0 | 0.00 | 0.00 | 0.00 | 35 | ||
| 20260505170033 | 86 | 0.0 | 0.0 | 0.00 | 0.00 | 0.00 | 35 | ||
| 20260505165047 | 85 | 0.0 | 0.0 | 0.00 | 0.00 | 0.00 | 35 | ||
| 20260505164033 | 85 | 0.0 | 0.0 | 0.00 | 0.00 | 0.00 | 35 | ||
| 20260505163042 | 86 | 0.0 | 0.0 | 0.00 | 0.00 | 0.00 | 34 | ||
| 20260505162046 | 85 | 0.0 | 0.0 | 0.00 | 0.00 | 0.00 | 35 | ||
| 20260505161040 | 84 | 0.0 | 0.0 | 0.00 | 0.00 | 0.00 | 38 | ||
| 20260505153032 | 81 | 0.0 | 0.0 | 0.00 | 0.00 | 0.00 | 43 | ||
| 20260505152039 | 80 | 0.0 | 0.0 | 0.00 | 0.00 | 0.00 | 44 | ||
| 20260505151048 | 79 | 0.0 | 0.0 | 0.00 | 0.00 | 0.00 | 45 | ||
| 20260505125032 | 68 | 0.0 | 0.0 | 0.00 | 0.00 | 0.00 | 57 | ||
| 20260505124037 | 67 | 0.0 | 0.0 | 0.00 | 0.00 | 0.00 | 58 | ||
| 20260505123045 | 66 | 0.0 | 0.0 | 0.00 | 0.00 | 0.00 | 60 | ||
| 20260505122035 | 65 | 0.0 | 0.0 | 0.00 | 0.00 | 0.00 | 60 | ||
| 20260505121043 | 64 | 0.0 | 0.0 | 0.00 | 0.00 | 0.00 | 62 | ||
| 20260505120033 | 63 | 0.0 | 0.0 | 0.00 | 0.00 | 0.00 | 63 | ||
| 20260505115043 | 62 | 0.0 | 0.0 | 0.00 | 0.00 | 0.00 | 63 | ||
| 20260505114030 | 62 | 0.0 | 0.0 | 0.00 | 0.00 | 0.00 | 63 | ||
| 20260505113038 | 62 | 0.0 | 0.0 | 0.00 | 0.00 | 0.00 | 63 | ||
| 20260505112048 | 62 | 0.0 | 0.0 | 0.00 | 0.00 | 0.00 | 64 | ||
| 20260505111036 | 61 | 0.0 | 0.0 | 0.00 | 0.00 | 0.00 | 64 | ||
| 20260505102041 | 60 | 0.0 | 0.0 | 0.00 | 0.00 | 0.00 | 66 | ||
| 20260505101047 | 60 | 0.0 | 0.0 | 0.00 | 0.00 | 0.00 | 66 | ||
| 20260505100036 | 60 | 0.0 | 0.0 | 0.00 | 0.00 | 0.00 | 66 | ||
| 20260505095045 | 60 | 0.0 | 0.0 | 0.00 | 0.00 | 0.00 | 67 | ||
| 20260505094036 | 60 | 0.0 | 0.0 | 0.00 | 0.00 | 0.00 | 67 | ||
| 20260505093042 | 60 | 0.0 | 0.0 | 0.00 | 0.00 | 0.00 | 67 | ||
| 20260505092034 | 60 | 0.0 | 0.0 | 0.00 | 0.00 | 0.00 | 67 | ||
| 20260505091039 | 61 | 0.0 | 0.0 | 0.00 | 0.00 | 0.00 | 67 | ||
| 20260505090047 | 61 | 0.0 | 0.0 | 0.00 | 0.00 | 0.00 | 67 | ||
| 20260505085037 | 61 | 0.0 | 0.0 | 0.00 | 0.00 | 0.00 | 68 | ||
| 20260505084045 | 61 | 0.0 | 0.0 | 0.00 | 0.00 | 0.00 | 68 | ||
| 20260505083052 | 61 | 0.0 | 0.0 | 0.00 | 0.00 | 0.00 | 68 | ||
| 20260505082042 | 61 | 0.0 | 0.0 | 0.00 | 0.00 | 0.00 | 68 | ||
| 20260505081032 | 61 | 0.0 | 0.0 | 0.00 | 0.00 | 0.00 | 68 | ||
| 20260505080040 | 62 | 0.0 | 0.0 | 0.00 | 0.00 | 0.00 | 67 | ||
| 20260505075030 | 62 | 0.0 | 0.0 | 0.00 | 0.00 | 0.00 | 67 | ||
| 20260505074038 | 62 | 0.0 | 0.0 | 0.00 | 0.00 | 0.00 | 67 | ||
| 20260505073108 | 62 | 0.0 | 0.0 | 0.00 | 0.00 | 0.00 | 68 | ||
| 20260505072055 | 62 | 0.0 | 0.0 | 0.00 | 0.00 | 0.00 | 67 | ||
| 20260505071042 | 62 | 0.0 | 0.0 | 0.00 | 0.00 | 0.00 | 67 | ||
| 20260505070032 | 62 | 0.0 | 0.0 | 0.00 | 0.00 | 0.00 | 67 | ||
| 20260505065040 | 63 | 0.0 | 0.0 | 0.00 | 0.00 | 0.00 | 67 | ||
| 20260505064050 | 63 | 0.0 | 0.0 | 0.00 | 0.00 | 0.00 | 67 | ||
| 20260505063038 | 62 | 0.0 | 0.0 | 0.00 | 0.00 | 0.00 | 68 | ||
| 20260505062047 | 62 | 0.0 | 0.0 | 0.00 | 0.00 | 0.00 | 69 | ||
| 20260505061055 | 61 | 0.0 | 0.0 | 0.00 | 0.00 | 0.00 | 70 | ||
| 20260505060046 | 61 | 0.0 | 0.0 | 0.00 | 0.00 | 0.00 | 70 | ||
| 20260505055033 | 61 | 0.0 | 0.0 | 0.00 | 0.00 | 0.00 | 71 | ||
| 20260505054042 | 61 | 0.0 | 0.0 | 0.00 | 0.00 | 0.00 | 70 | ||
| 20260505053030 | 61 | 0.0 | 0.0 | 0.00 | 0.00 | 0.00 | 70 | ||
| 20260505052040 | 62 | 0.0 | 0.0 | 0.00 | 0.00 | 0.00 | 69 | ||
| 20260505051046 | 63 | 0.0 | 0.0 | 0.00 | 0.00 | 0.00 | 68 | ||
| 20260505041038 | 65 | 0.0 | 0.0 | 0.00 | 0.00 | 0.00 | 63 | ||
| 20260505040048 | 66 | 0.0 | 0.0 | 0.00 | 0.00 | 0.00 | 62 | ||
| 20260505035036 | 65 | 0.0 | 0.0 | 0.00 | 0.00 | 0.00 | 62 | ||
| 20260505034044 | 66 | 0.0 | 0.0 | 0.00 | 0.00 | 0.00 | 61 | ||
| 20260505033038 | 66 | 0.0 | 0.0 | 0.00 | 0.00 | 0.00 | 61 | ||
| 20260505032042 | 66 | 0.0 | 0.0 | 0.00 | 0.00 | 0.00 | 60 | ||
| 20260505031032 | 66 | 0.0 | 0.0 | 0.00 | 0.00 | 0.00 | 58 | ||
| 20260505030040 | 67 | 0.0 | 0.0 | 0.00 | 0.00 | 0.00 | 57 | ||
| 20260505025029 | 67 | 0.0 | 0.0 | 0.00 | 0.00 | 0.00 | 56 | ||
| 20260505024037 | 68 | 0.0 | 0.0 | 0.00 | 0.00 | 0.00 | 55 | ||
| 20260505023046 | 68 | 0.0 | 0.0 | 0.00 | 0.00 | 0.00 | 53 | ||
| 20260505022034 | 69 | 0.0 | 0.0 | 0.00 | 0.00 | 0.00 | 52 | ||
| 20260505021044 | 70 | 0.0 | 0.0 | 0.00 | 0.00 | 0.00 | 51 | ||
| 20260505020033 | 70 | 0.0 | 0.0 | 0.00 | 0.00 | 0.00 | 50 | ||
| 20260505015042 | 70 | 0.0 | 0.0 | 0.00 | 0.00 | 0.00 | 49 |